AirNav   Everest Fuels
 
 1800 users online  

75MO Childrens Mercy Hospital Heliport
Kansas City, Missouri, USA

GOING TO KANSAS CITY?


FAA INFORMATION EFFECTIVE 30 DECEMBER 2021

Location

FAA Identifier: 75MO
Lat/Long: 39-05-01.7400N 094-34-36.9100W
39-05.029000N 094-34.615167W
39.0838167,-94.5769194
(estimated)
Elevation: 922 ft. / 281 m (estimated)
Variation: 04E (1995)
Time zone: UTC -6 (UTC -5 during Daylight Saving Time)
Zip code: 64108

Heliport Operations

Heliport use: Private use, MEDICAL USE.
Activation date: 05/1995
Control tower: no
ARTCC: KANSAS CITY CENTER
FSS: COLUMBIA FLIGHT SERVICE STATION
Attendance: CONTINUOUS
Wind indicator: yes
Segmented circle: no

Heliport Communications

WX ASOS at MKC (2.5 nm N): PHONE 816-329-2843
WX ASOS at LXT (12 nm SE): 124.175 (816-347-9807)
WX ASOS at MCI (14 nm NW): PHONE 816-329-2808
WX ASOS at OJC (16 nm SW): PHONE 913-780-6969
WX AWOS-3T at GPH (19 nm NE): 120.275 (816-407-3399)

Nearby radio navigation aids

VOR radial/distance  VOR name  Freq  Var
MCIr143/14.2KANSAS CITY VORTAC113.2505E
ANXr261/20.9NAPOLEON VORTAC114.0007E

Heliport Services

Runway Information

Helipad H1

Dimensions: 72 x 35 ft. / 22 x 11 m
Surface: concrete
Latitude: 39-05.029000N
Longitude: 094-34.615167W
Elevation: 922.0 ft.
Traffic pattern: leftleft

Helipad H2

Dimensions: 55 x 55 ft. / 17 x 17 m
Surface: asphalt
Latitude: 39-05.012667N
Longitude: 094-34.616167W
Elevation: 922.0 ft.
Traffic pattern: leftleft

Heliport Ownership and Management from official FAA records

Ownership: Privately-owned
Owner: CHILDRENS MERCY HOSPITAL
2401 GILLHAM ROAD
KANSAS CITY, MO 64108
Phone 816-234-3000
Manager: SHERRY MCCOOL
2401 GILLHAM ROAD
KANSAS CITY, MO 64108
Phone 816-536-3115
CHRISTY DRESSLER 816-234-3166

Heliport Operational Statistics

Aircraft based on the field: 1
Helicopters: 1
    

Additional Remarks

A52-H1 73 FT BLDG 80 FT S; 62 FT BLDG 300 FT NE; 95 FT BLDG 200 FT W & 200 FT CRANE 100 FT N.
FOR CD CTC KANSAS CITY APCH AT 816-329-2710.

Instrument Procedures

There are no published instrument procedures at 75MO.

Some nearby airports with instrument procedures:

KMKC - Charles B Wheeler Downtown Airport (2 nm N)
KLXT - Lee's Summit Municipal Airport (12 nm SE)
KMCI - Kansas City International Airport (14 nm NW)
KOJC - Johnson County Executive Airport (16 nm SW)
3GV - East Kansas City Airport (17 nm E)
KGPH - Midwest National Air Center Airport (19 nm NE)
 
Loc | Ops | Rwys | IFR | FBO | Links
Com | Nav | Svcs | Stats | Notes
Area around 75MO (Childrens Mercy Hospital Heliport)
 
Road maps at: MapQuest Bing Google
 
Aerial photo
No photo
 
Sectional chart

 
Airport distance calculator
Flying to Childrens Mercy Hospital Heliport? Find the distance to fly.

From to 75MO

Sunrise and sunset
Times for 21-Jan-2022
 Local
(UTC-6)
 Zulu
(UTC)
Morning civil twilight07:0513:05
Sunrise07:3413:34
Sunset17:2523:25
Evening civil twilight17:5423:54

Current date and time
Zulu (UTC)  21-Jan-2022 21:35:36
Local (UTC-6)  21-Jan-2022 15:35:36
 
METAR
KMKC 
2nm NW 
212054Z VRB04KT 10SM CLR M04/M18 A3042 RMK AO2 SLP314 T10391178 56028
KLXT 
12nm SE 
211853Z AUTO 19006KT 10SM CLR M07/M16 A3046 RMK AO2 SLP334 T10671161
KMCI 
15nm NW 
212053Z 18007KT 10SM SCT160 SCT200 M03/M17 A3039 RMK AO2 SLP309 T10331172 56026
KOJC 
16nm SW 
212053Z 20007KT 170V230 10SM CLR M04/M17 A3041 RMK AO2 SLP315 T10391172 56025
KGPH 
19nm NE 
212115Z AUTO 22005KT 10SM CLR M03/M17 A3043 RMK AO2
TAF
KMKC 
2nm NW 
211720Z 2118/2218 18008KT P6SM SKC FM220600 23005KT P6SM SCT040 BKN100 FM221300 31010KT P6SM SCT200
KMCI 
15nm NW 
211720Z 2118/2218 18008KT P6SM SKC FM220600 23005KT P6SM SCT040 BKN100 FM221300 31010KT P6SM SCT200
NOTAMs
Click for the latest NOTAMs
NOTAMs are issued by the DoD/FAA and will open in a separate window not controlled by AirNav.

 

 
 

Would you like to see your business listed on this page?

 If your business provides an interesting product or service to pilots, flight crews, aircraft, or users of the Childrens Mercy Hospital Heliport, you should consider listing it here.  To start the listing process, click on the button below
 
Add a business
 

Other Pages about Childrens Mercy Hospital Heliport

Update a link
 
Copyright © AirNav, LLC. All rights reserved. Privacy Policy  Contact